Regional Weather Roundup
Issued by NWS Green Bay, WI

Home | Current Version | Previous Version | Graphics & Text | Print | Product List | Glossary Off
Versions: 1 2 3 4 5 6 7 8 9 10 11 12 13 14 15 16 17 18 19 20 21 22 23 24 25 26 27 28 29 30 31 32 33 34 35 36 37 38 39 40 41 42 43 44 45 46 47 48 49 50

030
ASUS43 KGRB 142211
RWRGRB

NORTH-CENTRAL AND NORTHEAST WISCONSIN REGIONAL WEATHER ROUNDUP
NATIONAL WEATHER SERVICE GREEN BAY WI
400 PM CST SUN FEB 14 2016

WIZ005-009-010>012-018-019-142300-
NORTH CENTRAL WISCONSIN

CITY           SKY/WX    TMP DP  RH WIND       PRES   REMARKS
IRONWOOD       CLOUDY    21   3  45 S6        29.93S
MANITOWISH WTR CLOUDY    19   1  46 S12       29.94S WCI   6
ARBOR VITAE    CLOUDY    22   5  48 S8        29.95S
EAGLE RIVER    CLOUDY    19  -1  41 S16G22    29.96S WCI   5
LAND O LAKES   CLOUDY    21  -1  38 S8G20     29.96S
RHINELANDER    CLOUDY    19   0  43 SE14G23   29.97F WCI   6
PHILLIPS       CLOUDY    17   5  58 S13G18    29.95S WCI   4
ANTIGO         FLURRIES  17   9  73 S20       30.01F WCI   0
TOMAHAWK       CLOUDY    18   2  48 S5        29.98F
MERRILL        CLOUDY    20   5  52 SE14G22   30.01F WCI   6
$$

WIZ013-073-142300-
NORTHEAST WISCONSIN

CITY           SKY/WX    TMP DP  RH WIND       PRES   REMARKS
IRON MOUNTAIN  CLOUDY    19   9  65 S10G24    30.05F HAZE    WCI   7
MARINETTE      CLOUDY    16  12  86 S6        30.14F WCI   7
OCONTO         CLOUDY    20  12  73 SE12G18   30.14S WCI   7
$$

WIZ017-030-035>037-045-142300-
CENTRAL WISCONSIN

CITY           SKY/WX    TMP DP  RH WIND       PRES   REMARKS
MEDFORD        LGT SNOW  15   9  74 SE12G18   29.96F WCI   2
WAUSAU         LGT SNOW  19   9  65 SE13      30.01F WCI   6
MOSINEE        LGT SNOW  18  12  79 SE10      30.02F WCI   6
MARSHFIELD     LGT SNOW  16   8  71 SE13      29.99F WCI   2
WISC RAPIDS    LGT SNOW  16   8  71 SE10G21   30.04F WCI   4
STEVENS POINT  CLOUDY    16  10  76 SE10      30.03F WCI   3
WAUPACA        LGT SNOW  21  14  74 SE8       30.07F
SHAWANO        FLURRIES  22  13  68 SE14      30.10F WCI  10
CLINTONVILLE   FLURRIES  21  14  73 S13       30.08F WCI   9
WAUTOMA        CLOUDY    18  13  80 SE12      30.07R HAZE    WCI   6
$$

WIZ038-039-048-051-142300-
FOX VALLEY

CITY           SKY/WX    TMP DP  RH WIND       PRES   REMARKS
NWS GREEN BAY  FLURRIES  20  14  77 SE14      30.11F WCI   7
APPLETON       LGT SNOW  19  14  79 E16G22    30.06F WCI   5
OSHKOSH        LGT SNOW  19  13  77 SE14      30.06F WCI   6
FOND DU LAC    LGT SNOW  20  14  77 SE17      30.06F WCI   5
$$

WIZ022-050-052-142300-
EAST CENTRAL WISCONSIN

CITY           SKY/WX    TMP DP  RH WIND       PRES   REMARKS
EPHRAIM        CLOUDY    19  10  66 S13G21    30.14F WCI   7
STURGEON BAY   CLOUDY    19  10  68 SE17G24   30.16F WCI   4
MANITOWOC      MIX PCPN  21  14  74 S21G29    30.13F WCI   5
SHEBOYGAN      LGT SNOW  20  15  81 SE12      30.11F VSB 1   WCI   8
$$

LMZ563-521-522-541>543-142300-
LAKESHORE

STATION/POSITION TIME  TEMP    WIND        PRES    VSBY  WAVE
                       AIR SEA DIR/SP/G                  HT/PER
                 (UTC) (F)     (DEG/KT/KT) (MB)    (MI)  (FT/S)
SHEBOYGAN LKSHOR 2200   22     140/ 24/ 28 1021.2F
KEWAUNEE LKSHORE 2100   21     150/ 21/ 25 1020.9F
CHAMBERS ISLAND  2100   21     150/  6/ 15 1021.3F
MENOMINEE LKSHOR 2100   15      60/  2     1020.4F
$$




USA.gov is the U.S. government's official web portal to all federal, state and local government web resources and services.